sat.trackr.live / text

‹ back to catalog

YAOGAN-30 06B

NORAD 44450 · 2019-045B

PAYLOAD ACTIVE UNKNOWN

§ Identity

Operator
Country
PRC
Launch date
2019-07-26
Launch site
XICLF
Launch vehicle
Mass (kg)
RCS (m²)

External: N2YO · Heavens-Above · Gunter

§ Orbital elements

Epoch: 2026-05-25T05:29:26.209248Z

Period
95.84 min
Inclination
34.9916°
Eccentricity
0.0009351
Mean motion
15.02560898 rev/d
Perigee alt
552.5 km
Apogee alt
565.5 km
Semi-major
6,937.1 km
B*
1.7066e-4
RAAN
109.5470°
Arg perigee
236.3082°
Mean anomaly
123.6734°
Rev number
37,320

§ Raw data

YAOGAN-30 06B1 44450U 19045B   26145.22877557  .00002289  00000+0  17066-3 0  99902 44450  34.9916 109.5470 0009351 236.3082 123.6734 15.02560898373204

JSON: /api/v1/satellites/44450 · /tle

For live sub-satellite position, see the globe view (requires WebGL).

§ Visibility from observer

Set your observer location to see the next 7 days of passes ≥ 10°. The values pass through the URL so the page stays shareable.

No JS? Fill the form by hand. The geolocation button needs JavaScript.